Weather reports worldwide

Advertisment
Braemar, United Kingdom (99089): temperature & dewpoint: 02.08.2020 04:00:00 - 08.08.2020 04:00:00 (BST)Braemar, United Kingdom (99089): temperature -20cm & temperature -100cm: 02.08.2020 04:00:00 - 08.08.2020 04:00:00 (BST)Braemar, United Kingdom (99089): precipitation: 02.08.2020 04:00:00 - 08.08.2020 04:00:00 (BST)
Date & Time tt [°C] td [°C] tt -20cm [°C] tt -100cm [°C] rr [mm]
08.08.2020 04:00:00 7,0 5,8 - - 0,0
08.08.2020 03:00:00 7,6 6,2 - - 0,0
08.08.2020 02:00:00 9,3 7,8 - - 0,0
08.08.2020 01:00:00 9,7 8,0 - - 0,0
08.08.2020 00:00:00 10,5 8,4 - - 0,0
07.08.2020 23:00:00 12,6 10,1 - - 0,0
07.08.2020 22:00:00 14,6 12,5 - - 0,2
07.08.2020 21:00:00 15,4 14,1 - - 0,4
07.08.2020 20:00:00 16,6 15,3 - - 1,0
07.08.2020 19:00:00 18,1 14,2 - - 0,0
07.08.2020 18:00:00 18,5 13,7 - - 0,0
07.08.2020 17:00:00 18,9 13,4 - - 0,0
07.08.2020 16:00:00 20,7 14,0 - - 0,0
07.08.2020 15:00:00 18,3 13,1 - - 0,0
07.08.2020 14:00:00 18,5 13,1 - - 0,0
07.08.2020 13:00:00 18,6 12,2 - - 0,0
07.08.2020 12:00:00 18,2 12,3 - - 0,0
07.08.2020 11:00:00 19,1 13,5 - - 0,0
07.08.2020 10:00:00 17,6 12,2 14,7 13,0 0,0
07.08.2020 09:00:00 16,9 12,9 - - 0,0
07.08.2020 08:00:00 16,3 12,6 - - 0,0
07.08.2020 07:00:00 15,0 13,0 - - 0,0
07.08.2020 06:00:00 14,0 12,1 - - 0,0
07.08.2020 05:00:00 14,8 11,7 - - 0,0
07.08.2020 04:00:00 14,8 11,6 - - 0,0
07.08.2020 03:00:00 15,5 11,9 - - 0,0
07.08.2020 02:00:00 15,2 11,9 - - 0,0
07.08.2020 01:00:00 16,2 12,2 - - 0,0
07.08.2020 00:00:00 16,4 12,2 - - 0,0
06.08.2020 23:00:00 16,9 12,5 - - 0,0
06.08.2020 22:00:00 17,4 12,8 - - 0,0
06.08.2020 21:00:00 17,2 12,6 - - 0,0
06.08.2020 20:00:00 17,1 12,8 - - 0,0
06.08.2020 19:00:00 18,1 12,6 - - 0,0
06.08.2020 18:00:00 18,6 12,1 - - 0,0
06.08.2020 17:00:00 20,4 12,5 - - 0,0
06.08.2020 16:00:00 20,8 11,8 - - 0,0
06.08.2020 15:00:00 21,2 12,1 - - 0,0
06.08.2020 14:00:00 21,1 10,4 - - 0,0
06.08.2020 13:00:00 20,7 10,1 - - 0,0
06.08.2020 12:00:00 20,2 10,1 - - 0,0
06.08.2020 11:00:00 18,4 10,5 - - 0,0
06.08.2020 10:00:00 17,2 11,5 13,7 13,0 0,0
06.08.2020 09:00:00 13,7 10,9 - - 0,0
06.08.2020 08:00:00 10,5 9,9 - - 0,0
06.08.2020 07:00:00 7,9 7,5 - - 0,0
06.08.2020 06:00:00 7,8 7,3 - - 0,0
06.08.2020 05:00:00 9,5 9,0 - - 0,0
06.08.2020 04:00:00 10,0 8,7 - - 0,0
06.08.2020 03:00:00 12,5 10,5 - - 0,0
06.08.2020 02:00:00 12,5 10,4 - - 0,0
06.08.2020 01:00:00 13,6 11,5 - - 0,0
06.08.2020 00:00:00 13,7 12,3 - - 0,0
05.08.2020 23:00:00 13,3 12,3 - - 0,0
05.08.2020 22:00:00 14,9 12,8 - - 0,0
05.08.2020 21:00:00 15,5 12,9 - - 0,0
05.08.2020 20:00:00 16,2 12,9 - - 0,0
05.08.2020 19:00:00 16,1 13,2 - - 0,0
05.08.2020 18:00:00 17,5 12,1 - - 0,0
05.08.2020 17:00:00 17,5 12,5 - - 0,0
05.08.2020 16:00:00 16,9 12,1 - - 0,0
05.08.2020 15:00:00 16,4 11,5 - - 0,0
05.08.2020 14:00:00 17,2 13,0 - - 0,0
05.08.2020 13:00:00 15,7 11,8 - - 0,0
05.08.2020 12:00:00 15,1 11,3 - - 0,0
05.08.2020 11:00:00 15,7 11,1 - - 0,0
05.08.2020 10:00:00 15,4 11,1 13,2 13,0 0,0
05.08.2020 09:00:00 14,5 11,2 - - 0,0
05.08.2020 08:00:00 13,9 10,7 - - 0,0
05.08.2020 07:00:00 13,8 11,1 - - 0,0
05.08.2020 06:00:00 14,1 11,0 - - 0,0
05.08.2020 05:00:00 13,8 11,1 - - 0,0
05.08.2020 04:00:00 13,8 10,9 - - 0,0
05.08.2020 03:00:00 13,8 11,0 - - 0,0
05.08.2020 02:00:00 14,0 11,1 - - 0,0
05.08.2020 01:00:00 15,0 11,5 - - 0,2
05.08.2020 00:00:00 15,7 12,7 - - 0,0
04.08.2020 23:00:00 15,9 13,6 - - 0,0
04.08.2020 22:00:00 15,2 13,9 - - 0,2
04.08.2020 21:00:00 16,3 13,3 - - 0,0
04.08.2020 20:00:00 16,6 13,3 - - 0,0
04.08.2020 19:00:00 16,5 13,5 - - 0,0
04.08.2020 18:00:00 15,5 13,5 - - 0,0
04.08.2020 17:00:00 14,2 12,8 - - 1,4
04.08.2020 16:00:00 13,5 11,9 - - 1,2
04.08.2020 15:00:00 12,7 11,1 - - 1,4
04.08.2020 14:00:00 12,0 10,4 - - 2,8
04.08.2020 13:00:00 11,8 10,0 - - 1,4
04.08.2020 12:00:00 11,5 9,4 - - 0,8
04.08.2020 11:00:00 10,8 9,3 - - 1,6
04.08.2020 10:00:00 10,6 8,6 13,2 13,0 0,8
04.08.2020 09:00:00 10,3 7,9 - - 0,2
04.08.2020 08:00:00 10,9 7,2 - - 0,0
04.08.2020 07:00:00 10,7 7,1 - - 0,0
04.08.2020 06:00:00 8,9 7,3 - - 0,0
04.08.2020 05:00:00 6,8 6,5 - - 0,0
04.08.2020 04:00:00 5,4 5,0 - - 0,0
04.08.2020 03:00:00 5,5 4,4 - - 0,0
04.08.2020 02:00:00 6,3 5,9 - - 0,0
04.08.2020 01:00:00 6,3 4,9 - - 0,0
04.08.2020 00:00:00 8,8 6,6 - - 0,0
03.08.2020 23:00:00 7,5 5,4 - - 0,0
03.08.2020 22:00:00 9,3 5,7 - - 0,0
03.08.2020 21:00:00 11,0 5,7 - - 0,0
03.08.2020 20:00:00 12,4 6,6 - - 0,0
03.08.2020 19:00:00 12,8 7,0 - - 0,0
03.08.2020 18:00:00 14,0 6,2 - - 0,0
03.08.2020 17:00:00 14,0 5,6 - - 0,0
03.08.2020 16:00:00 13,5 5,4 - - 0,0
03.08.2020 15:00:00 14,8 7,1 - - 0,0
03.08.2020 14:00:00 13,0 4,7 - - 0,0
03.08.2020 13:00:00 12,4 5,6 - - 0,0
03.08.2020 12:00:00 13,4 5,2 - - 0,0
03.08.2020 11:00:00 11,9 5,6 - - 0,0
03.08.2020 10:00:00 11,2 5,5 13,7 13,2 0,0
03.08.2020 09:00:00 11,2 5,5 - - 0,0
03.08.2020 08:00:00 8,5 6,3 - - 0,0
03.08.2020 07:00:00 6,2 4,9 - - 0,0
03.08.2020 06:00:00 4,2 3,2 - - 0,0
03.08.2020 05:00:00 4,0 2,9 - - 0,0
03.08.2020 04:00:00 4,2 3,3 - - 0,0
03.08.2020 03:00:00 4,4 3,1 - - 0,0
03.08.2020 02:00:00 5,8 4,1 - - 0,0
03.08.2020 01:00:00 5,8 4,0 - - 0,0
03.08.2020 00:00:00 7,4 4,5 - - 0,0
02.08.2020 23:00:00 8,6 5,5 - - 0,0
02.08.2020 22:00:00 10,2 5,6 - - 0,0
02.08.2020 21:00:00 11,4 5,8 - - 0,0
02.08.2020 20:00:00 13,2 5,5 - - 0,0
02.08.2020 19:00:00 12,5 5,5 - - 0,0
02.08.2020 18:00:00 13,7 5,8 - - 0,0
02.08.2020 17:00:00 14,3 5,6 - - 0,0
02.08.2020 16:00:00 14,3 6,8 - - 0,0
02.08.2020 15:00:00 15,0 6,4 - - 0,0
02.08.2020 14:00:00 14,9 6,6 - - 0,0
02.08.2020 13:00:00 14,1 6,0 - - 0,0
02.08.2020 12:00:00 14,5 8,0 - - 0,0
02.08.2020 11:00:00 13,7 7,5 - - 0,0
02.08.2020 10:00:00 12,2 7,3 14,5 13,0 0,0
02.08.2020 09:00:00 12,0 8,5 - - 0,0
02.08.2020 08:00:00 11,0 9,4 - - 0,0
02.08.2020 07:00:00 9,7 8,5 - - 0,0
02.08.2020 06:00:00 9,4 8,5 - - 0,0
02.08.2020 05:00:00 9,8 7,8 - - 0,0
02.08.2020 04:00:00 10,0 7,8 - - 0,0

tt = temperature
td = dewpoint
tt -20cm = temperature -20cm
tt -100cm = temperature -100cm
rr = precipitation

Next stations